W1LH-13 Weather Reports


time (UTC)temp
C
wind
direction
speed
KPH
gust
KPH
rain 1hr
cm
rain 24hr
cm
rain mn
cm
humidity
%
barometer
mb
20260508100837 4 263 9.7 16.1 0.00 0.00 0.00 82 1003.9
20260508100322 3 275 11.3 14.5 0.00 0.00 0.00 83 1003.8
20260508095826 3 298 9.7 12.9 0.00 0.00 0.00 84 1002.8
20260508095330 3 268 9.7 14.5 0.00 0.00 0.00 85 1002.0
20260508094835 3 269 9.7 14.5 0.00 0.00 0.00 86 1002.0
20260508094319 2 273 9.7 12.9 0.00 0.00 0.00 87 1003.8
20260508093825 2 285 9.7 12.9 0.00 0.00 0.00 88 1003.7
20260508093330 1 288 9.7 12.9 0.00 0.00 0.00 88 1003.7
20260508092834 1 289 9.7 11.3 0.00 0.00 0.00 88 1003.8
20260508092322 1 272 8.0 11.3 0.00 0.00 0.00 89 1003.8
20260508091847 1 277 8.0 11.3 0.00 0.00 0.00 88 1003.8
20260508091330 1 284 526.3 526.3 0.00 0.00 0.00 89 1003.8
20260508090836 0 286 8.0 11.3 0.00 0.00 0.00 88 1003.7
20260508090341 0 290 8.0 8.0 0.00 0.00 0.00 87 1003.6
20260508085824 0 280 8.0 9.7 0.00 0.05 0.00 87 1003.6
20260508085327 1 265 3.2 6.4 0.00 0.05 0.00 87 1003.7
20260508084833 1 281 4.8 6.4 0.00 0.05 0.00 86 1003.7
20260508084337 1 279 3.2 4.8 0.00 0.05 0.00 86 1003.6
20260508083821 1 279 3.2 4.8 0.00 0.05 0.00 86 1003.5
20260508083346 1 279 3.2 4.8 0.00 0.05 0.00 86 1003.5
20260508082850 1 296 1.6 4.8 0.00 0.05 0.00 86 1003.5
20260508082333 1 296 3.2 6.4 0.00 0.05 0.00 86 1003.5
20260508081820 1 296 4.8 6.4 0.00 0.05 0.00 86 1003.5
20260508081325 1 296 4.8 6.4 0.00 0.05 0.00 85 1003.6
20260508080829 2 300 3.2 4.8 0.00 0.05 0.00 85 1003.5
20260508080333 2 300 3.2 6.4 0.00 0.05 0.00 85 1003.5
20260508075838 1 307 4.8 6.4 0.00 0.33 0.00 85 1003.4
20260508075323 1 307 6.4 8.0 0.00 0.33 0.00 85 1003.4
20260508074827 1 302 6.4 8.0 0.00 0.33 0.00 84 1003.5
20260508074333 2 298 6.4 9.7 0.00 0.33 0.00 83 1003.5
20260508073859 2 279 4.8 8.0 0.00 0.33 0.00 82 1003.5
20260508073321 2 272 4.8 6.4 0.00 0.33 0.00 81 1003.5
20260508072846 2 271 3.2 4.8 0.00 0.33 0.00 81 1003.6
20260508072348 2 271 3.2 4.8 0.00 0.33 0.00 80 1003.6
20260508071852 3 284 3.2 4.8 0.00 0.33 0.00 80 1003.7
20260508071336 3 284 3.2 4.8 0.00 0.33 0.00 79 1003.6
20260508070824 3 284 1.6 4.8 0.00 0.33 0.00 79 1003.5
20260508070328 3 284 3.2 4.8 0.00 0.33 0.00 78 1003.5
20260508065851 3 278 3.2 4.8 0.00 0.38 0.00 77 1003.5
20260508065335 3 292 3.2 4.8 0.00 0.38 0.00 76 1003.5
20260508064840 4 292 3.2 4.8 0.00 0.38 0.00 76 1003.6
20260508064324 4 292 1.6 4.8 0.00 0.38 0.00 75 1003.5
20260508063849 5 292 0.0 3.2 0.00 0.38 0.00 76 1003.5
20260508063352 5 292 1.6 4.8 0.00 0.38 0.00 76 1003.6
20260508062835 5 292 3.2 8.0 0.00 0.38 0.00 76 1003.6
20260508062339 5 296 4.8 8.0 0.00 0.38 0.00 76 1003.5
20260508061823 5 288 6.4 8.0 0.00 0.38 0.00 76 1003.5
20260508061328 5 295 6.4 9.7 0.00 0.38 0.00 75 1003.6
20260508060833 5 288 6.4 6.4 0.00 0.38 0.00 74 1003.6
20260508060322 5 302 4.8 6.4 0.00 0.38 0.00 72 1003.7
20260508055826 5 313 3.2 4.8 0.00 0.41 0.00 72 1003.8
20260508055332 5 313 1.6 4.8 0.00 0.41 0.00 72 1003.8
20260508054835 6 313 1.6 6.4 0.00 0.41 0.00 72 1003.8
20260508054340 5 311 4.8 8.0 0.00 0.41 0.00 72 1003.8
20260508053823 5 279 4.8 11.3 0.00 0.41 0.00 72 1003.8
20260508053328 5 312 8.0 9.7 0.00 0.41 0.00 72 1003.8
20260508052833 5 286 9.7 11.3 0.00 0.41 0.00 72 1003.9
20260508052337 6 300 8.0 12.9 0.00 0.41 0.00 71 1003.8
20260508051821 6 296 8.0 11.3 0.00 0.41 0.00 71 1003.9
20260508051326 6 278 8.0 9.7 0.00 0.41 0.00 70 1003.9
20260508050836 6 276 6.4 8.0 0.00 0.41 0.00 69 1004.0
20260508050341 6 277 526.3 526.3 0.00 0.00 0.00 69 1004.1
20260508045827 6 274 9.7 12.9 0.00 0.51 0.00 69 1004.2
20260508045331 6 280 9.7 12.9 0.00 0.51 0.00 70 1004.1
20260508044835 6 289 9.7 12.9 0.00 0.51 0.00 69 1004.1
20260508044320 6 293 9.7 12.9 0.00 0.51 0.00 69 1004.2
20260508043824 7 287 8.0 9.7 0.00 0.51 0.00 68 1004.3
20260508043329 7 279 6.4 11.3 0.00 0.51 0.00 68 1004.4
20260508042853 7 275 8.0 11.3 0.00 0.51 0.00 66 1004.3
20260508042337 7 278 8.0 11.3 0.00 0.51 0.00 66 1004.3
20260508041820 7 281 6.4 11.3 0.00 0.51 0.00 65 1004.3
20260508041325 8 299 6.4 11.3 0.00 0.51 0.00 64 1004.3
20260508040850 8 286 6.4 11.3 0.00 0.51 0.00 62 1004.3
20260508040338 8 274 6.4 11.3 0.00 0.51 0.00 61 1004.3
20260508035823 8 271 8.0 12.9 0.00 0.61 0.51 60 1004.2
20260508035328 9 268 6.4 14.5 0.00 0.61 0.51 60 1004.2
20260508034833 9 288 6.4 14.5 0.00 0.61 0.51 60 1004.2
20260508034337 9 257 8.0 12.9 0.00 0.61 0.51 60 1004.2
20260508033821 9 282 8.0 12.9 0.00 0.61 0.51 60 1004.2
20260508033324 10 300 8.0 12.9 0.00 0.61 0.51 60 1004.1
20260508032828 10 270 8.0 12.9 0.00 0.61 0.51 60 1004.1
20260508032333 10 286 8.0 12.9 0.00 0.61 0.51 61 1004.0
20260508031837 10 284 6.4 12.9 0.00 0.61 0.51 60 1004.0
20260508031325 10 252 8.0 14.5 0.00 0.61 0.51 60 1004.0
20260508030828 10 257 6.4 16.1 0.00 0.61 0.51 60 1004.1
20260508030332 10 272 8.0 14.5 0.00 0.61 0.51 61 1004.1
20260508025838 10 275 4.8 14.5 0.00 0.69 0.51 62 1004.2
20260508025322 10 267 6.4 16.1 0.00 0.69 0.51 62 1004.1
20260508024826 10 271 8.0 16.1 0.00 0.69 0.51 63 1004.1
20260508024352 10 267 6.4 17.7 0.00 0.69 0.51 65 1004.1
20260508023854 10 276 4.8 12.9 0.00 0.69 0.51 67 1004.1
20260508023339 11 274 8.0 14.5 0.00 0.69 0.51 66 1004.1
20260508022823 11 273 9.7 14.5 0.00 0.69 0.51 66 1004.1
20260508022328 11 263 6.4 11.3 0.00 0.69 0.51 67 1004.1
20260508021852 11 279 6.4 14.5 0.00 0.69 0.51 66 1004.1
20260508021335 11 292 9.7 14.5 0.00 0.69 0.51 66 1004.0
20260508020823 11 282 6.4 16.1 0.00 0.69 0.51 67 1004.0
20260508020328 11 280 6.4 16.1 0.00 0.69 0.51 68 1003.9
20260508015853 11 252 9.7 24.1 0.00 0.69 0.51 69 1004.0
20260508015337 11 306 6.4 24.1 0.00 0.69 0.51 70 1004.0
20260508014840 11 279 6.4 16.1 0.00 0.69 0.51 71 1004.0
20260508014323 11 275 8.0 16.1 0.00 0.69 0.51 71 1004.0
20260508013827 11 268 4.8 11.3 0.00 0.69 0.51 71 1004.0
20260508013331 12 296 6.4 11.3 0.00 0.69 0.51 70 1004.0
20260508012837 12 279 3.2 12.9 0.00 0.69 0.51 71 1004.0
20260508012322 12 302 9.7 14.5 0.00 0.69 0.51 70 1004.0
20260508011847 12 286 6.4 12.9 0.00 0.69 0.51 71 1003.9
20260508011330 12 263 6.4 16.1 0.00 0.69 0.51 70 1003.8
20260508010833 12 277 6.4 16.1 0.00 0.69 0.51 70 1003.8
20260508010323 12 266 8.0 16.1 0.00 0.69 0.51 70 1003.7
20260508005828 12 297 8.0 16.1 0.00 0.69 0.51 70 1003.7
20260508005331 12 253 9.7 16.1 0.00 0.69 0.51 70 1003.6
20260508004836 12 294 6.4 14.5 0.00 0.69 0.51 71 1003.6
20260508004340 12 281 6.4 16.1 0.00 0.69 0.51 72 1003.5
20260508003825 12 302 6.4 16.1 0.00 0.69 0.51 73 1003.5
20260508003329 12 246 8.0 17.7 0.00 0.69 0.51 74 1003.5
20260508002833 11 286 11.3 17.7 0.00 0.69 0.51 76 1003.4
20260508002337 11 275 3.2 6.4 0.00 0.69 0.51 78 1003.4
20260508001822 11 275 3.2 4.8 0.00 0.69 0.51 78 1003.3
20260508001330 11 275 3.2 4.8 0.00 0.69 0.51 77 1003.2
20260508000836 12 275 3.2 4.8 0.00 0.69 0.51 75 1003.0
20260508000320 12 275 3.2 4.8 0.00 0.69 0.51 74 1002.9
20260507235846 12 275 1.6 4.8 0.00 0.69 0.51 72 1002.8
20260507235329 13 275 3.2 11.3 0.00 0.69 0.51 68 1002.8
20260507234833 13 256 6.4 11.3 0.00 0.69 0.51 65 1002.7
20260507234337 13 257 4.8 12.9 0.00 0.69 0.51 62 1002.5
20260507233821 13 258 6.4 11.3 0.00 0.69 0.51 61 1002.4
20260507233326 13 281 4.8 16.1 0.00 0.69 0.51 61 1002.3
20260507232831 13 270 8.0 16.1 0.00 0.69 0.51 60 1002.3
20260507232335 13 317 9.7 17.7 0.00 0.69 0.51 60 1002.2
20260507231859 13 271 11.3 19.3 0.00 0.69 0.51 60 1002.1
20260507231327 13 270 6.4 19.3 0.00 0.69 0.51 59 1002.0
20260507230831 13 313 9.7 22.5 0.00 0.69 0.51 58 1001.9
20260507230335 14 249 8.0 22.5 0.00 0.69 0.51 57 1001.8
20260507225820 14 265 9.7 20.9 0.00 0.69 0.51 56 1001.7
20260507225325 15 278 9.7 20.9 0.00 0.69 0.51 55 1001.7
20260507224849 15 271 9.7 20.9 0.00 0.69 0.51 53 1001.6
20260507224333 15 284 11.3 22.5 0.00 0.69 0.51 51 1001.6
20260507223900 15 258 12.9 22.5 0.00 0.69 0.51 51 1001.5
20260507223323 16 290 1.6 6.4 0.00 0.69 0.51 59 1001.3
20260507222828 16 241 1.6 6.4 0.00 0.69 0.51 57 1001.3
20260507222333 16 240 4.8 6.4 0.00 0.69 0.51 56 1001.3
20260507221858 16 209 3.2 6.4 0.00 0.69 0.51 53 1001.3
20260507221322 16 278 1.6 9.7 0.00 0.69 0.51 48 1001.2
20260507220830 16 248 3.2 9.7 0.00 0.69 0.51 49 1001.2
20260507220333 16 241 4.8 11.3 0.00 0.69 0.51 47 1001.1
20260507215858 16 252 6.4 12.9 0.00 0.69 0.51 46 1001.2
20260507215322 16 261 9.7 12.9 0.00 0.69 0.51 46 1001.1
20260507214847 17 270 6.4 19.3 0.00 0.69 0.51 44 1001.1
20260507214330 17 284 11.3 19.3 0.00 0.69 0.51 42 1001.1
20260507213836 17 273 6.4 14.5 0.00 0.69 0.51 44 1001.0
20260507213320 17 276 6.4 14.5 0.00 0.69 0.51 45 1001.0
20260507212825 17 265 8.0 14.5 0.00 0.69 0.51 44 1001.1
20260507212330 17 263 6.4 11.3 0.00 0.69 0.51 45 1001.1
20260507211835 16 300 6.4 20.9 0.00 0.69 0.51 45 1001.0
20260507211338 17 294 9.7 20.9 0.00 0.69 0.51 43 1001.0
20260507210826 17 277 12.9 19.3 0.00 0.69 0.51 43 1001.0
20260507210350 17 262 9.7 16.1 0.00 0.69 0.51 44 1000.9
20260507205833 17 297 9.7 16.1 0.00 0.69 0.51 42 1000.9
20260507205359 17 290 11.3 20.9 0.00 0.69 0.51 42 1000.8
20260507204822 17 265 12.9 19.3 0.00 0.69 0.51 40 1000.8
20260507204346 18 321 9.7 17.7 0.00 0.69 0.51 39 1000.8
20260507203830 18 313 526.3 526.3 0.00 0.00 0.51 39 1000.6
20260507203335 18 298 11.3 19.3 0.00 0.69 0.51 39 1000.6
20260507202859 18 274 11.3 19.3 0.00 0.69 0.51 40 1000.6
20260507202323 17 304 6.4 12.9 0.00 0.69 0.51 42 1000.5
20260507201828 17 289 1.6 11.3 0.00 0.69 0.51 45 1000.5
20260507201352 17 350 1.6 11.3 0.00 0.69 0.51 46 1000.6
20260507200837 17 256 4.8 14.5 0.00 0.69 0.51 45 1000.7
20260507200321 17 296 8.0 14.5 0.00 0.69 0.51 43 1000.7
20260507195825 18 272 526.3 526.3 0.00 0.00 0.51 43 1000.6
20260507195336 18 252 6.4 11.3 0.00 0.69 0.51 46 1000.6
20260507194900 18 232 3.2 17.7 0.00 0.69 0.51 46 1000.6
20260507194323 17 296 11.3 17.7 0.00 0.69 0.51 45 1000.7
20260507193827 17 213 4.8 11.3 0.00 0.69 0.51 46 1000.9
20260507193333 17 219 6.4 14.5 0.00 0.69 0.51 47 1001.0
20260507192837 17 343 6.4 14.5 0.00 0.69 0.51 47 1001.0
20260507192320 17 275 8.0 14.5 0.00 0.69 0.51 46 1001.1
20260507191825 17 253 6.4 19.3 0.00 0.69 0.51 50 1001.1
20260507191330 16 259 12.9 19.3 0.00 0.69 0.51 47 1001.2
20260507190833 17 234 11.3 17.7 0.00 0.69 0.51 46 1001.1
20260507190340 18 305 6.4 14.5 0.00 0.69 0.51 46 1001.1
20260507185828 17 255 4.8 14.5 0.00 0.69 0.51 50 1001.1
20260507185333 17 315 9.7 19.3 0.00 0.69 0.51 47 1001.1
20260507184838 17 250 9.7 14.5 0.00 0.69 0.51 50 1001.1
20260507184343 17 67 6.4 16.1 0.00 0.69 0.51 47 1001.2
20260507183847 17 268 6.4 17.7 0.00 0.69 0.51 51 1001.3
20260507183330 16 281 11.3 20.9 0.00 0.69 0.51 47 1001.4
20260507182835 16 292 8.0 22.5 0.00 0.69 0.51 48 1001.4
20260507182339 17 259 12.9 22.5 0.00 0.69 0.51 45 1001.4
20260507181822 17 268 11.3 22.5 0.00 0.69 0.51 49 1001.4
20260507181328 17 279 11.3 29.0 0.00 0.69 0.51 50 1001.3
20260507180833 16 274 14.5 20.9 0.00 0.69 0.51 49 1001.3
20260507180337 16 303 12.9 19.3 0.00 0.69 0.51 48 1001.2
20260507175825 17 286 11.3 19.3 0.00 0.69 0.51 49 1001.3
20260507175330 17 319 11.3 20.9 0.00 0.69 0.51 48 1001.3
20260507174833 17 275 8.0 29.0 0.00 0.69 0.51 49 1001.3
20260507174359 16 269 11.3 29.0 0.00 0.69 0.51 51 1001.4
20260507173822 16 260 12.9 19.3 0.00 0.69 0.51 51 1001.4
20260507173328 16 300 11.3 22.5 0.00 0.69 0.51 51 1001.3
20260507172832 16 302 4.8 14.5 0.00 0.69 0.51 53 1001.5
20260507172358 16 327 3.2 17.7 0.00 0.69 0.51 53 1001.6
20260507171842 16 289 11.3 22.5 0.00 0.69 0.51 53 1001.6
20260507171324 16 219 9.7 22.5 0.00 0.69 0.51 53 1001.6
20260507170830 16 252 12.9 29.0 0.00 0.69 0.51 54 1001.7
20260507170334 16 276 16.1 22.5 0.00 0.69 0.51 52 1001.6
20260507165839 16 25 6.4 16.1 0.00 0.69 0.51 53 1001.7
20260507165326 16 327 8.0 16.1 0.00 0.69 0.51 53 1001.8
20260507164831 16 175 6.4 12.9 0.00 0.69 0.51 55 1001.9
20260507164356 16 38 3.2 17.7 0.00 0.69 0.51 61 1001.9
20260507163838 15 315 8.0 17.7 0.00 0.69 0.51 58 1002.0
20260507163323 15 114 3.2 17.7 0.00 0.69 0.51 60 1002.0
20260507162847 15 270 3.2 16.1 0.00 0.69 0.51 62 1002.1
20260507162331 15 304 8.0 19.3 0.00 0.69 0.51 60 1002.2
20260507161835 15 294 9.7 20.9 0.00 0.69 0.51 60 1002.3
20260507161401 15 213 4.8 20.9 0.00 0.69 0.51 61 1002.4
20260507160824 15 296 9.7 16.1 0.00 0.69 0.51 63 1002.5
20260507160328 15 313 8.0 24.1 0.00 0.69 0.51 66 1002.6
20260507155852 15 340 12.9 24.1 0.00 0.69 0.51 65 1002.6
20260507155337 14 258 6.4 17.7 0.00 0.69 0.51 67 1002.6
20260507154821 14 298 9.7 17.7 0.00 0.69 0.51 68 1002.7
20260507154346 15 294 4.8 12.9 0.00 0.69 0.51 69 1002.6
20260507153834 14 182 3.2 19.3 0.00 0.69 0.51 71 1002.5
20260507153339 14 305 9.7 19.3 0.00 0.69 0.51 69 1002.7
20260507152823 14 277 4.8 14.5 0.00 0.69 0.51 71 1002.8
20260507152326 14 286 4.8 19.3 0.00 0.69 0.51 73 1002.7
20260507151852 13 319 11.3 19.3 0.00 0.69 0.51 71 1002.8
20260507151334 13 36 8.0 17.7 0.00 0.69 0.51 72 1002.9
20260507150859 13 355 9.7 17.7 0.00 0.69 0.51 73 1002.9
20260507150323 13 300 9.7 19.3 0.00 0.69 0.51 73 1003.0
20260507145828 13 291 4.8 22.5 0.00 0.69 0.51 73 1003.1
20260507145332 13 259 11.3 16.1 0.00 0.69 0.51 74 1003.2
20260507144836 13 168 4.8 16.1 0.00 0.69 0.51 77 1003.4
20260507144321 12 325 9.7 19.3 0.00 0.69 0.51 75 1003.4
20260507143830 12 298 11.3 17.7 0.00 0.69 0.51 74 1003.1
20260507143334 12 284 8.0 19.3 0.00 0.69 0.51 76 1003.2
20260507142839 12 309 9.7 19.3 0.00 0.69 0.51 79 1003.4
20260507142322 12 311 11.3 17.7 0.00 0.69 0.51 79 1003.5
20260507141826 12 149 4.8 25.7 0.00 0.69 0.51 81 1003.6
20260507141331 12 292 11.3 25.7 0.00 0.69 0.51 81 1003.8
20260507140836 12 267 8.0 16.1 0.00 0.69 0.51 83 1003.8
20260507140320 11 277 8.0 16.1 0.00 0.69 0.51 83 1003.8
20260507135824 12 278 6.4 20.9 0.00 0.69 0.51 85 1003.7
20260507135329 11 280 11.3 20.9 0.00 0.69 0.51 85 1003.6
20260507134833 11 291 9.7 14.5 0.00 0.69 0.51 87 1003.6
20260507134322 10 309 6.4 12.9 0.00 0.69 0.51 87 1003.6
20260507133846 10 278 8.0 12.9 0.00 0.69 0.51 87 1003.7
20260507133329 10 335 3.2 12.9 0.00 0.69 0.51 88 1003.7
20260507132835 10 282 8.0 14.5 0.00 0.69 0.51 88 1003.9
20260507132359 10 292 6.4 14.5 0.00 0.69 0.51 89 1003.8
20260507131823 10 298 4.8 12.9 0.00 0.69 0.51 90 1003.7
20260507131348 10 319 8.0 12.9 0.00 0.69 0.51 89 1003.9
20260507130832 10 279 8.0 14.5 0.00 0.69 0.51 90 1003.8
20260507130336 10 259 9.7 14.5 0.00 0.69 0.51 90 1003.6
20260507125821 10 297 6.4 12.9 0.00 0.69 0.51 90 1003.3
20260507125325 9 266 4.8 14.5 0.00 0.69 0.51 91 1003.2
20260507124831 9 295 8.0 14.5 0.00 0.69 0.51 91 1003.4
20260507124319 9 256 526.3 526.3 0.00 0.00 0.51 91 1003.9
20260507123825 9 277 9.7 16.1 0.00 0.69 0.51 91 1003.9
20260507123330 9 292 9.7 16.1 0.00 0.69 0.51 91 1004.1
20260507122835 10 253 6.4 12.9 0.00 0.69 0.51 92 1003.8
20260507122338 10 298 6.4 11.3 0.00 0.69 0.51 92 1004.1
20260507121823 10 283 6.4 11.3 0.00 0.69 0.51 92 1004.5
20260507121327 10 292 4.8 11.3 0.00 0.69 0.51 92 1004.5
20260507120832 10 273 4.8 14.5 0.00 0.69 0.51 92 1004.0
20260507120337 9 288 6.4 16.1 0.00 0.69 0.51 92 1004.2
20260507115821 10 273 9.7 16.1 0.00 0.69 0.51 92 1004.4
20260507115325 10 266 4.8 14.5 0.00 0.69 0.51 93 1004.4
20260507114834 10 272 4.8 16.1 0.00 0.69 0.51 92 1004.0
20260507114338 10 277 8.0 16.1 0.00 0.69 0.51 93 1004.1
20260507113822 10 306 8.0 12.9 0.00 0.69 0.51 93 1004.0
20260507112822 10 326 6.4 16.1 0.00 0.69 0.51 93 1003.6
20260507112347 10 298 8.0 16.1 0.00 0.69 0.51 93 1003.5
20260507111851 10 243 9.7 16.1 0.00 0.69 0.51 93 1003.4
20260507111338 10 230 3.2 12.9 0.00 0.69 0.51 94 1003.4
20260507110820 10 275 6.4 12.9 0.00 0.69 0.51 94 1003.6
20260507110324 10 298 4.8 14.5 0.00 0.69 0.51 93 1003.3
20260507105828 10 245 8.0 14.5 0.00 0.69 0.51 93 1003.3
20260507105332 10 306 3.2 9.7 0.00 0.69 0.51 93 1003.2
20260507104822 10 252 3.2 11.3 0.00 0.69 0.51 94 1003.4
20260507104327 10 280 4.8 6.4 0.00 0.69 0.51 94 1003.3
20260507103832 10 308 3.2 8.0 0.00 0.69 0.51 93 1003.3
20260507103336 10 274 6.4 12.9 0.00 0.69 0.51 93 1003.5
20260507102839 10 260 4.8 9.7 0.00 0.69 0.51 93 1003.5
20260507102324 10 288 4.8 12.9 0.00 0.69 0.51 94 1003.3
20260507101828 10 274 6.4 12.9 0.00 0.69 0.51 94 1003.3
20260507101330 10 263 6.4 12.9 0.00 0.69 0.51 94 1003.6